Time,TemperatureF,DewpointF,PressureIn,WindDirection,WindDirectionDegrees,WindSpeedMPH,WindSpeedGustMPH,Humidity,HourlyPrecipIn,Conditions,Clouds,dailyrainin,SoftwareType,DateUTC
2013-03-26 00:12:00,43.4,28.0,29.81,WSW,252,0.0,0.0,54,0.00,,,0.00,weatherlink.com 1.10,2013-03-26 07:12:00,
2013-03-26 00:27:00,43.2,28.0,29.81,WSW,252,0.0,0.0,55,0.00,,,0.00,weatherlink.com 1.10,2013-03-26 07:27:00,
2013-03-26 00:42:00,42.2,28.0,29.82,WSW,252,1.0,1.0,57,0.00,,,0.00,weatherlink.com 1.10,2013-03-26 07:42:00,
2013-03-26 00:57:00,41.9,28.0,29.81,WSW,252,0.0,1.0,58,0.00,,,0.00,weatherlink.com 1.10,2013-03-26 07:57:00,
2013-03-26 01:12:00,41.3,28.0,29.81,WSW,252,0.0,0.0,60,0.00,,,0.00,weatherlink.com 1.10,2013-03-26 08:12:00,
2013-03-26 01:27:00,40.7,28.0,29.81,WSW,252,0.0,1.0,62,0.00,,,0.00,weatherlink.com 1.10,2013-03-26 08:27:00,
2013-03-26 01:42:00,40.9,29.0,29.81,North,9,0.0,1.0,62,0.00,,,0.00,weatherlink.com 1.10,2013-03-26 08:42:00,
2013-03-26 01:57:00,40.2,28.0,29.82,North,9,0.0,0.0,63,0.00,,,0.00,weatherlink.com 1.10,2013-03-26 08:57:00,
2013-03-26 02:12:00,39.7,29.0,29.82,North,9,0.0,2.0,66,0.00,,,0.00,weatherlink.com 1.10,2013-03-26 09:12:00,
2013-03-26 02:27:00,39.3,29.0,29.81,North,9,0.0,1.0,68,0.00,,,0.00,weatherlink.com 1.10,2013-03-26 09:27:00,
2013-03-26 02:42:00,38.7,29.0,29.80,North,9,0.0,1.0,68,0.00,,,0.00,weatherlink.com 1.10,2013-03-26 09:42:00,
2013-03-26 02:57:00,38.1,29.0,29.80,North,9,0.0,1.0,70,0.00,,,0.00,weatherlink.com 1.10,2013-03-26 09:57:00,
2013-03-26 03:12:00,37.4,29.0,29.80,North,9,0.0,1.0,72,0.00,,,0.00,weatherlink.com 1.10,2013-03-26 10:12:00,
2013-03-26 03:27:00,37.2,29.0,29.80,North,9,0.0,0.0,71,0.00,,,0.00,weatherlink.com 1.10,2013-03-26 10:27:00,
2013-03-26 03:42:00,36.5,29.0,29.79,North,9,0.0,0.0,73,0.00,,,0.00,weatherlink.com 1.10,2013-03-26 10:42:00,
2013-03-26 03:57:00,35.9,29.0,29.79,North,9,0.0,2.0,75,0.00,,,0.00,weatherlink.com 1.10,2013-03-26 10:57:00,
2013-03-26 04:12:00,35.7,29.0,29.79,North,9,0.0,1.0,75,0.00,,,0.00,weatherlink.com 1.10,2013-03-26 11:12:00,
2013-03-26 04:27:00,35.2,29.0,29.79,North,9,0.0,0.0,77,0.00,,,0.00,weatherlink.com 1.10,2013-03-26 11:27:00,
2013-03-26 04:42:00,34.6,28.0,29.79,North,9,0.0,0.0,78,0.00,,,0.00,weatherlink.com 1.10,2013-03-26 11:42:00,
2013-03-26 04:57:00,34.1,28.0,29.79,North,9,0.0,0.0,79,0.00,,,0.00,weatherlink.com 1.10,2013-03-26 11:57:00,
2013-03-26 05:12:00,33.9,28.0,29.80,North,9,0.0,1.0,79,0.00,,,0.00,weatherlink.com 1.10,2013-03-26 12:12:00,
2013-03-26 05:27:00,33.5,28.0,29.80,North,9,0.0,1.0,81,0.00,,,0.00,weatherlink.com 1.10,2013-03-26 12:27:00,
2013-03-26 05:42:00,33.7,28.0,29.81,North,9,0.0,0.0,81,0.00,,,0.00,weatherlink.com 1.10,2013-03-26 12:42:00,
2013-03-26 05:57:00,33.4,28.0,29.81,North,9,0.0,1.0,80,0.00,,,0.00,weatherlink.com 1.10,2013-03-26 12:57:00,
2013-03-26 06:12:00,33.5,28.0,29.81,North,9,0.0,2.0,81,0.00,,,0.00,weatherlink.com 1.10,2013-03-26 13:12:00,
2013-03-26 06:27:00,33.3,28.0,29.81,North,9,0.0,2.0,82,0.00,,,0.00,weatherlink.com 1.10,2013-03-26 13:27:00,
2013-03-26 06:42:00,33.0,28.0,29.82,North,9,0.0,1.0,83,0.00,,,0.00,weatherlink.com 1.10,2013-03-26 13:42:00,
2013-03-26 06:57:00,33.0,28.0,29.82,North,9,0.0,1.0,83,0.00,,,0.00,weatherlink.com 1.10,2013-03-26 13:57:00,
2013-03-26 07:12:00,35.3,31.0,29.83,North,9,0.0,0.0,83,0.00,,,0.00,weatherlink.com 1.10,2013-03-26 14:12:00,
2013-03-26 07:27:00,39.3,31.0,29.83,North,9,0.0,1.0,71,0.00,,,0.00,weatherlink.com 1.10,2013-03-26 14:27:00,
2013-03-26 07:42:00,42.6,31.0,29.83,North,9,0.0,1.0,65,0.00,,,0.00,weatherlink.com 1.10,2013-03-26 14:42:00,
2013-03-26 07:58:00,45.6,31.0,29.84,North,9,0.0,1.0,57,0.00,,,0.00,weatherlink.com 1.10,2013-03-26 14:58:00,
2013-03-26 08:13:00,49.5,31.0,29.83,East,82,0.0,2.0,50,0.00,,,0.00,weatherlink.com 1.10,2013-03-26 15:13:00,
2013-03-26 08:28:00,53.5,30.0,29.83,SSE,160,0.0,2.0,40,0.00,,,0.00,weatherlink.com 1.10,2013-03-26 15:28:00,
2013-03-26 08:43:00,56.9,30.0,29.83,SE,127,0.0,2.0,36,0.00,,,0.00,weatherlink.com 1.10,2013-03-26 15:43:00,
2013-03-26 08:58:00,59.1,29.0,29.83,SE,140,0.0,3.0,32,0.00,,,0.00,weatherlink.com 1.10,2013-03-26 15:58:00,
2013-03-26 09:13:00,61.0,27.0,29.82,ESE,121,3.0,3.0,28,0.00,,,0.00,weatherlink.com 1.10,2013-03-26 16:13:00,
2013-03-26 09:28:00,63.2,28.0,29.82,SE,128,0.0,5.0,26,0.00,,,0.00,weatherlink.com 1.10,2013-03-26 16:28:00,
2013-03-26 09:43:00,62.9,30.0,29.82,East,100,0.0,3.0,29,0.00,,,0.00,weatherlink.com 1.10,2013-03-26 16:43:00,
2013-03-26 09:58:00,64.6,28.0,29.82,SW,229,0.0,6.0,25,0.00,,,0.00,weatherlink.com 1.10,2013-03-26 16:58:00,
2013-03-26 10:13:00,65.0,29.0,29.81,East,100,5.0,6.0,26,0.00,,,0.00,weatherlink.com 1.10,2013-03-26 17:13:00,
2013-03-26 10:28:00,64.3,27.0,29.81,NW,305,1.0,5.0,24,0.00,,,0.00,weatherlink.com 1.10,2013-03-26 17:28:00,
2013-03-26 10:43:00,64.5,27.0,29.80,NNE,17,0.0,4.0,24,0.00,,,0.00,weatherlink.com 1.10,2013-03-26 17:43:00,
2013-03-26 10:58:00,66.0,28.0,29.80,ENE,74,2.0,5.0,24,0.00,,,0.00,weatherlink.com 1.10,2013-03-26 17:58:00,
2013-03-26 11:13:00,66.1,29.0,29.79,East,99,5.0,5.0,25,0.00,,,0.00,weatherlink.com 1.10,2013-03-26 18:13:00,
2013-03-26 11:28:00,68.1,29.0,29.79,WSW,257,1.0,5.0,23,0.00,,,0.00,weatherlink.com 1.10,2013-03-26 18:28:00,
2013-03-26 11:43:00,69.7,29.0,29.78,East,81,1.0,5.0,22,0.00,,,0.00,weatherlink.com 1.10,2013-03-26 18:43:00,
2013-03-26 11:58:00,70.8,30.0,29.77,ESE,123,5.0,7.0,22,0.00,,,0.00,weatherlink.com 1.10,2013-03-26 18:58:00,
2013-03-26 12:13:00,71.6,28.0,29.76,ESE,110,4.0,7.0,20,0.00,,,0.00,weatherlink.com 1.10,2013-03-26 19:13:00,
2013-03-26 12:28:00,72.6,29.0,29.75,South,184,1.0,9.0,20,0.00,,,0.00,weatherlink.com 1.10,2013-03-26 19:28:00,
2013-03-26 12:43:00,72.8,29.0,29.74,SE,127,5.0,6.0,20,0.00,,,0.00,weatherlink.com 1.10,2013-03-26 19:43:00,
2013-03-26 12:59:00,74.2,25.0,29.74,West,275,4.0,10.0,16,0.00,,,0.00,weatherlink.com 1.10,2013-03-26 19:59:00,
2013-03-26 13:29:00,73.9,26.0,29.73,ESE,105,4.0,14.0,17,0.00,,,0.00,weatherlink.com 1.10,2013-03-26 20:29:00,
2013-03-26 13:44:00,75.8,23.0,29.72,SE,133,5.0,12.0,14,0.00,,,0.00,weatherlink.com 1.10,2013-03-26 20:44:00,
2013-03-26 13:59:00,76.0,25.0,29.71,ESE,108,3.0,14.0,15,0.00,,,0.00,weatherlink.com 1.10,2013-03-26 20:59:00,
2013-03-26 14:14:00,74.4,24.0,29.70,SW,225,1.0,14.0,15,0.00,,,0.00,weatherlink.com 1.10,2013-03-26 21:14:00,
2013-03-26 14:29:00,74.8,26.0,29.70,ESE,103,10.0,10.0,16,0.00,,,0.00,weatherlink.com 1.10,2013-03-26 21:29:00,
2013-03-26 14:44:00,76.4,25.0,29.69,SSW,198,7.0,12.0,15,0.00,,,0.00,weatherlink.com 1.10,2013-03-26 21:44:00,
2013-03-26 14:59:00,76.2,25.0,29.69,South,180,4.0,10.0,15,0.00,,,0.00,weatherlink.com 1.10,2013-03-26 21:59:00,
2013-03-26 15:14:00,75.2,26.0,29.69,South,186,4.0,8.0,16,0.00,,,0.00,weatherlink.com 1.10,2013-03-26 22:14:00,
2013-03-26 15:29:00,76.3,27.0,29.68,SW,222,3.0,14.0,16,0.00,,,0.00,weatherlink.com 1.10,2013-03-26 22:29:00,
2013-03-26 15:44:00,77.9,25.0,29.67,SSW,195,4.0,10.0,14,0.00,,,0.00,weatherlink.com 1.10,2013-03-26 22:44:00,
2013-03-26 15:59:00,77.9,25.0,29.66,SSW,195,4.0,9.0,14,0.00,,,0.00,weatherlink.com 1.10,2013-03-26 22:59:00,
2013-03-26 16:14:00,78.0,25.0,29.66,SSW,202,6.0,12.0,14,0.00,,,0.00,weatherlink.com 1.10,2013-03-26 23:14:00,
2013-03-26 16:29:00,77.5,25.0,29.66,SSW,209,3.0,16.0,14,0.00,,,0.00,weatherlink.com 1.10,2013-03-26 23:29:00,
2013-03-26 16:44:00,77.1,24.0,29.65,South,184,4.0,7.0,14,0.00,,,0.00,weatherlink.com 1.10,2013-03-26 23:44:00,
2013-03-26 16:59:00,75.9,25.0,29.65,NE,37,1.0,13.0,15,0.00,,,0.00,weatherlink.com 1.10,2013-03-26 23:59:00,
2013-03-26 17:14:00,75.4,26.0,29.65,SSW,192,4.0,14.0,16,0.00,,,0.00,weatherlink.com 1.10,2013-03-27 00:14:00,
2013-03-26 17:29:00,74.7,26.0,29.65,South,171,2.0,12.0,16,0.00,,,0.00,weatherlink.com 1.10,2013-03-27 00:29:00,
2013-03-26 17:44:00,74.2,25.0,29.65,SW,216,5.0,9.0,16,0.00,,,0.00,weatherlink.com 1.10,2013-03-27 00:44:00,
2013-03-26 17:59:00,73.2,24.0,29.66,WSW,240,2.0,15.0,16,0.00,,,0.00,weatherlink.com 1.10,2013-03-27 00:59:00,
2013-03-26 18:14:00,72.1,23.0,29.66,South,174,1.0,10.0,16,0.00,,,0.00,weatherlink.com 1.10,2013-03-27 01:14:00,
2013-03-26 18:29:00,70.3,23.0,29.66,SSW,195,2.0,7.0,17,0.00,,,0.00,weatherlink.com 1.10,2013-03-27 01:29:00,
2013-03-26 18:44:00,68.5,22.0,29.66,SSW,199,0.0,8.0,17,0.00,,,0.00,weatherlink.com 1.10,2013-03-27 01:44:00,
2013-03-26 18:59:00,66.6,22.0,29.66,South,184,8.0,8.0,18,0.00,,,0.00,weatherlink.com 1.10,2013-03-27 01:59:00,
2013-03-26 19:14:00,64.9,23.0,29.67,ESE,119,2.0,3.0,20,0.00,,,0.00,weatherlink.com 1.10,2013-03-27 02:14:00,
2013-03-26 19:29:00,63.4,23.0,29.67,SSE,156,0.0,3.0,21,0.00,,,0.00,weatherlink.com 1.10,2013-03-27 02:29:00,
2013-03-26 19:44:00,62.0,24.0,29.68,South,186,0.0,2.0,23,0.00,,,0.00,weatherlink.com 1.10,2013-03-27 02:44:00,
2013-03-26 19:59:00,60.5,24.0,29.69,SSE,157,0.0,2.0,25,0.00,,,0.00,weatherlink.com 1.10,2013-03-27 02:59:00,
2013-03-26 20:14:00,58.3,25.0,29.69,SSE,157,0.0,1.0,28,0.00,,,0.00,weatherlink.com 1.10,2013-03-27 03:14:00,
2013-03-26 20:29:00,56.3,26.0,29.70,SSE,157,0.0,1.0,31,0.00,,,0.00,weatherlink.com 1.10,2013-03-27 03:29:00,
2013-03-26 20:44:00,54.6,26.0,29.70,SSE,157,0.0,2.0,33,0.00,,,0.00,weatherlink.com 1.10,2013-03-27 03:44:00,
2013-03-26 20:59:00,53.0,27.0,29.70,WSW,257,0.0,2.0,36,0.00,,,0.00,weatherlink.com 1.10,2013-03-27 03:59:00,
2013-03-26 21:14:00,51.5,27.0,29.71,WSW,257,1.0,2.0,39,0.00,,,0.00,weatherlink.com 1.10,2013-03-27 04:14:00,
2013-03-26 21:29:00,50.0,28.0,29.71,WSW,257,1.0,2.0,42,0.00,,,0.00,weatherlink.com 1.10,2013-03-27 04:29:00,
2013-03-26 21:44:00,48.7,27.0,29.71,WSW,257,0.0,2.0,43,0.00,,,0.00,weatherlink.com 1.10,2013-03-27 04:44:00,
2013-03-26 21:59:00,47.6,28.0,29.72,WSW,257,0.0,2.0,47,0.00,,,0.00,weatherlink.com 1.10,2013-03-27 04:59:00,
2013-03-26 22:14:00,46.7,28.0,29.72,SSE,161,0.0,2.0,48,0.00,,,0.00,weatherlink.com 1.10,2013-03-27 05:14:00,
2013-03-26 22:29:00,45.7,28.0,29.72,SSE,161,0.0,2.0,50,0.00,,,0.00,weatherlink.com 1.10,2013-03-27 05:29:00,
2013-03-26 22:44:00,45.0,29.0,29.72,WSW,244,0.0,2.0,53,0.00,,,0.00,weatherlink.com 1.10,2013-03-27 05:44:00,
2013-03-26 22:59:00,44.3,28.0,29.73,South,181,2.0,2.0,54,0.00,,,0.00,weatherlink.com 1.10,2013-03-27 05:59:00,
2013-03-26 23:14:00,43.3,28.0,29.73,West,270,1.0,2.0,56,0.00,,,0.00,weatherlink.com 1.10,2013-03-27 06:14:00,
2013-03-26 23:29:00,42.7,29.0,29.73,West,270,0.0,2.0,58,0.00,,,0.00,weatherlink.com 1.10,2013-03-27 06:29:00,
2013-03-26 23:44:00,41.7,29.0,29.73,West,270,1.0,2.0,61,0.00,,,0.00,weatherlink.com 1.10,2013-03-27 06:44:00,
2013-03-26 23:59:00,41.3,29.0,29.73,West,270,0.0,2.0,63,0.00,,,0.00,weatherlink.com 1.10,2013-03-27 06:59:00,